START_TIME,STEP,MOV.,M29,t_acc.,H22,t_acc.,H26,t_acc.,H30,t_acc.
1979-08-02 23:07:18.730 ,0,0,0.,24.0,0.,24.0,0.,24.0,0.,24.0
1979-08-02 23:07:42.730 ,0,0,0.,24.0,0.,24.0,0.,24.0,0.,24.0
1979-08-02 23:08:06.730 ,4,1,0.,24.0,0.,24.0,0.,24.0,0.,24.0
1979-08-02 23:08:30.730 ,4,0,0.,24.0,0.,24.0,0.,24.0,0.,24.0
1979-08-02 23:08:54.730 ,3,1,0.,24.0,0.,24.0,0.,24.0,0.,24.0
1979-08-02 23:09:18.730 ,3,0,0.,24.0,0.,24.0,0.,24.0,0.,24.0
1979-08-02 23:09:42.730 ,2,1,0.,24.0,0.,24.0,0.,24.0,0.,24.0
1979-08-02 23:10:06.730 ,2,0,0.,24.0,0.,24.0,0.,24.0,0.,24.0
1979-08-02 23:10:30.730 ,1,1,0.,24.0,0.,24.0,0.,24.0,0.,24.0
1979-08-02 23:10:54.730 ,1,0,0.,24.0,0.,24.0,0.,24.0,0.,24.0
1979-08-02 23:11:18.730 ,0,1,0.,24.0,0.,24.0,0.,24.0,0.,24.0
1979-08-02 23:11:42.730 ,0,0,0.,24.0,0.,24.0,0.,24.0,0.,24.0
1979-08-02 23:12:06.730 ,0,1,0.,24.0,0.,24.0,0.,24.0,0.,24.0
1979-08-02 23:12:30.730 ,0,0,0.,24.0,0.,24.0,0.,24.0,0.,24.0
1979-08-02 23:12:54.730 ,1,1,0.,24.0,0.,24.0,0.,24.0,0.,24.0
1979-08-02 23:13:18.730 ,1,0,0.,24.0,0.,24.0,0.,24.0,0.,24.0
1979-08-02 23:13:42.730 ,2,1,0.,24.0,0.,24.0,0.,24.0,0.,24.0
1979-08-02 23:14:06.730 ,2,0,0.,24.0,0.,24.0,0.,24.0,0.,24.0
1979-08-02 23:14:30.730 ,3,1,0.,24.0,0.,24.0,0.,24.0,0.,24.0
1979-08-02 23:14:54.730 ,3,0,0.,24.0,0.,24.0,0.,24.0,0.,24.0
1979-08-02 23:15:18.730 ,4,1,0.,24.0,0.,24.0,0.,24.0,0.,24.0
1979-08-02 23:15:42.730 ,4,0,0.,24.0,0.,24.0,0.,24.0,0.,24.0
1979-08-02 23:16:06.730 ,5,1,0.,24.0,0.,24.0,0.,24.0,0.,24.0
1979-08-02 23:16:30.730 ,5,0,0.,24.0,0.,24.0,0.,24.0,0.,24.0
1979-08-02 23:16:54.730 ,6,1,0.,24.0,0.,24.0,0.,24.0,0.,24.0
1979-08-02 23:17:18.730 ,6,0,0.,24.0,0.,24.0,0.,24.0,0.,24.0
1979-08-02 23:17:42.730 ,7,1,0.,24.0,0.,24.0,0.,24.0,0.,24.0
1979-08-02 23:18:06.730 ,7,0,0.,24.0,0.,24.0,0.,24.0,0.,24.0
1979-08-02 23:18:30.730 ,7,1,0.,24.0,0.,24.0,0.,24.0,0.,24.0
1979-08-02 23:18:54.730 ,7,0,0.,24.0,0.,24.0,0.,24.0,0.,24.0
1979-08-02 23:19:18.730 ,6,1,0.,24.0,0.,24.0,0.,24.0,0.,24.0
1979-08-02 23:19:42.730 ,6,0,0.,24.0,0.,24.0,0.,24.0,0.,24.0
1979-08-02 23:20:06.730 ,5,1,0.,24.0,0.,24.0,0.,24.0,0.,24.0
1979-08-02 23:20:30.730 ,5,0,0.,24.0,0.,24.0,0.,24.0,0.,24.0
1979-08-02 23:20:54.730 ,4,1,0.,24.0,0.,24.0,0.,24.0,0.,24.0
1979-08-02 23:21:18.730 ,4,0,1.,24.0,0.,24.0,0.,24.0,0.,24.0
1979-08-02 23:21:42.730 ,3,1,0.,24.0,0.,24.0,0.,24.0,0.,24.0
1979-08-02 23:22:06.730 ,3,0,0.,24.0,0.,24.0,0.,24.0,0.,24.0
1979-08-02 23:22:30.730 ,2,1,0.,24.0,0.,24.0,0.,24.0,0.,24.0
1979-08-02 23:22:54.730 ,2,0,0.,24.0,0.,24.0,0.,24.0,0.,24.0
1979-08-02 23:23:18.730 ,1,1,0.,24.0,0.,24.0,0.,24.0,0.,24.0
1979-08-02 23:23:42.730 ,1,0,0.,24.0,0.,24.0,0.,24.0,0.,24.0
1979-08-02 23:24:06.730 ,0,1,0.,24.0,0.,24.0,0.,24.0,0.,24.0
1979-08-02 23:24:30.730 ,0,0,0.,24.0,0.,24.0,0.,24.0,0.,24.0
1979-08-02 23:24:54.730 ,0,1,0.,24.0,0.,24.0,0.,24.0,0.,24.0
1979-08-02 23:25:18.730 ,0,0,1.,24.0,0.,24.0,0.,24.0,0.,24.0
1979-08-02 23:25:42.730 ,1,1,0.,24.0,0.,24.0,0.,24.0,0.,24.0
1979-08-02 23:26:06.730 ,1,0,0.,24.0,0.,24.0,0.,24.0,0.,24.0
1979-08-02 23:26:30.730 ,2,1,0.,24.0,0.,24.0,0.,24.0,0.,24.0
1979-08-02 23:26:54.730 ,2,0,0.,24.0,0.,24.0,0.,24.0,0.,24.0
1979-08-02 23:27:18.730 ,3,1,0.,24.0,0.,24.0,0.,24.0,0.,24.0
1979-08-02 23:27:42.730 ,3,0,0.,24.0,0.,24.0,0.,24.0,0.,24.0
1979-08-02 23:28:06.730 ,4,1,0.,24.0,0.,24.0,0.,24.0,0.,24.0
1979-08-02 23:28:30.730 ,4,0,0.,24.0,0.,24.0,0.,24.0,0.,24.0
1979-08-02 23:28:54.730 ,5,1,0.,24.0,0.,24.0,0.,24.0,0.,24.0
1979-08-02 23:29:18.730 ,5,0,0.,24.0,0.,24.0,0.,24.0,0.,24.0
1979-08-02 23:29:42.730 ,6,1,1.,24.0,0.,24.0,0.,24.0,0.,24.0
1979-08-02 23:30:06.730 ,6,0,0.,24.0,0.,24.0,0.,24.0,0.,24.0
1979-08-02 23:30:30.730 ,7,0,0.,24.0,0.,24.0,0.,24.0,0.,24.0
1979-08-02 23:30:54.730 ,7,0,0.,24.0,0.,24.0,0.,24.0,0.,24.0
1979-08-02 23:31:18.730 ,5,1,0.,24.0,0.,24.0,0.,24.0,0.,24.0
1979-08-02 23:31:42.730 ,1,1,0.,24.0,0.,24.0,0.,24.0,0.,24.0
1979-08-02 23:32:06.730 ,2,1,1.,24.0,0.,24.0,0.,24.0,0.,24.0
1979-08-02 23:32:30.730 ,6,1,0.,24.0,0.,24.0,0.,24.0,0.,24.0
1979-08-02 23:32:54.730 ,5,1,0.,24.0,0.,24.0,0.,24.0,0.,24.0
1979-08-02 23:33:18.730 ,1,1,0.,24.0,0.,24.0,0.,24.0,0.,24.0
1979-08-02 23:33:42.730 ,2,1,0.,24.0,0.,24.0,0.,24.0,0.,24.0
1979-08-02 23:34:06.730 ,6,1,0.,24.0,0.,24.0,0.,24.0,0.,24.0
1979-08-02 23:34:30.730 ,5,1,0.,24.0,0.,24.0,0.,24.0,0.,24.0
1979-08-02 23:34:54.730 ,1,1,0.,24.0,0.,24.0,0.,24.0,0.,24.0
1979-08-02 23:35:18.720 ,2,1,0.,24.0,0.,24.0,0.,24.0,0.,24.0
1979-08-02 23:35:42.720 ,6,1,0.,24.0,0.,24.0,0.,24.0,0.,24.0
1979-08-02 23:36:06.720 ,5,1,0.,24.0,0.,24.0,0.,24.0,0.,24.0
1979-08-02 23:36:30.720 ,1,1,0.,24.0,0.,24.0,0.,24.0,0.,24.0
1979-08-02 23:36:54.720 ,2,1,0.,24.0,0.,24.0,0.,24.0,0.,24.0
1979-08-02 23:37:18.720 ,6,1,0.,24.0,0.,24.0,0.,24.0,0.,24.0
1979-08-02 23:37:42.720 ,5,1,0.,24.0,0.,24.0,0.,24.0,0.,24.0
1979-08-02 23:38:06.720 ,1,1,0.,24.0,0.,24.0,0.,24.0,0.,24.0
1979-08-02 23:38:30.720 ,2,1,0.,24.0,0.,24.0,0.,24.0,0.,24.0
1979-08-02 23:38:54.720 ,6,1,0.,24.0,0.,24.0,0.,24.0,1.,24.0
1979-08-02 23:39:18.720 ,5,1,0.,24.0,0.,24.0,0.,24.0,0.,24.0
1979-08-02 23:39:42.720 ,1,1,0.,24.0,0.,24.0,0.,24.0,0.,24.0
1979-08-02 23:40:06.720 ,2,1,0.,24.0,0.,24.0,0.,24.0,0.,24.0
1979-08-02 23:40:30.720 ,6,1,0.,24.0,0.,24.0,0.,24.0,0.,24.0
1979-08-02 23:40:54.720 ,5,1,0.,24.0,0.,24.0,0.,24.0,0.,24.0
1979-08-02 23:41:18.720 ,1,1,0.,24.0,0.,24.0,0.,24.0,0.,24.0
1979-08-02 23:41:42.720 ,0,0,0.,24.0,0.,24.0,0.,24.0,0.,24.0
1979-08-02 23:42:06.720 ,0,0,0.,24.0,0.,24.0,0.,24.0,0.,24.0
1979-08-02 23:42:30.720 ,5,1,0.,24.0,0.,24.0,0.,24.0,0.,24.0
1979-08-02 23:42:54.720 ,5,0,0.,24.0,0.,24.0,0.,24.0,0.,24.0
1979-08-02 23:43:18.720 ,4,1,0.,24.0,0.,24.0,0.,24.0,0.,24.0
1979-08-02 23:43:42.720 ,4,0,0.,24.0,0.,24.0,0.,24.0,0.,24.0
1979-08-02 23:44:06.720 ,3,1,0.,24.0,0.,24.0,0.,24.0,0.,24.0
1979-08-02 23:44:30.720 ,3,0,0.,24.0,0.,24.0,0.,24.0,0.,24.0
1979-08-02 23:44:54.720 ,2,1,0.,24.0,0.,24.0,0.,24.0,0.,24.0
1979-08-02 23:45:18.720 ,2,0,0.,24.0,0.,24.0,0.,24.0,0.,24.0
1979-08-02 23:45:42.720 ,1,1,0.,24.0,0.,24.0,0.,24.0,0.,24.0
1979-08-02 23:46:06.720 ,1,0,0.,24.0,0.,24.0,0.,24.0,0.,24.0
1979-08-02 23:46:30.720 ,0,1,0.,24.0,0.,24.0,0.,24.0,0.,24.0
1979-08-02 23:46:54.720 ,0,0,0.,24.0,0.,24.0,0.,24.0,0.,24.0
1979-08-02 23:47:18.720 ,0,1,0.,24.0,0.,24.0,0.,24.0,0.,24.0
1979-08-02 23:47:42.720 ,0,0,0.,24.0,0.,24.0,0.,24.0,0.,24.0
1979-08-02 23:48:06.720 ,1,1,0.,24.0,0.,24.0,0.,24.0,0.,24.0
1979-08-02 23:48:30.720 ,1,0,0.,24.0,0.,24.0,0.,24.0,0.,24.0
1979-08-02 23:48:54.720 ,2,1,0.,24.0,0.,24.0,0.,24.0,0.,24.0
1979-08-02 23:49:18.720 ,2,0,0.,24.0,0.,24.0,0.,24.0,0.,24.0
1979-08-02 23:49:42.720 ,3,1,0.,24.0,0.,24.0,0.,24.0,0.,24.0
1979-08-02 23:50:06.720 ,3,0,0.,24.0,0.,24.0,0.,24.0,0.,24.0
1979-08-02 23:50:30.720 ,4,1,0.,24.0,0.,24.0,0.,24.0,0.,24.0
1979-08-02 23:50:54.720 ,4,0,0.,24.0,0.,24.0,0.,24.0,0.,24.0
1979-08-02 23:51:18.720 ,5,1,0.,24.0,0.,24.0,0.,24.0,0.,24.0
1979-08-02 23:51:42.720 ,5,0,0.,24.0,0.,24.0,0.,24.0,0.,24.0
1979-08-02 23:52:06.720 ,6,1,0.,24.0,0.,24.0,0.,24.0,0.,24.0
1979-08-02 23:52:30.720 ,6,0,0.,24.0,0.,24.0,0.,24.0,0.,24.0
1979-08-02 23:52:54.720 ,7,1,0.,24.0,0.,24.0,0.,24.0,0.,24.0
1979-08-02 23:53:18.720 ,7,0,0.,24.0,0.,24.0,0.,24.0,0.,24.0
1979-08-02 23:53:42.720 ,7,1,0.,24.0,0.,24.0,0.,24.0,0.,24.0
1979-08-02 23:54:06.720 ,7,0,0.,24.0,0.,24.0,0.,24.0,0.,24.0
1979-08-02 23:54:30.720 ,6,1,0.,24.0,0.,24.0,0.,24.0,0.,24.0
1979-08-02 23:54:54.720 ,6,0,0.,24.0,0.,24.0,0.,24.0,0.,24.0
1979-08-02 23:55:18.720 ,5,1,0.,24.0,0.,24.0,0.,24.0,0.,24.0
1979-08-02 23:55:42.720 ,5,0,0.,24.0,0.,24.0,0.,24.0,0.,24.0
1979-08-02 23:56:06.720 ,4,1,0.,24.0,0.,24.0,0.,24.0,0.,24.0
1979-08-02 23:56:30.720 ,4,0,0.,24.0,0.,24.0,0.,24.0,0.,24.0
1979-08-02 23:56:54.720 ,3,1,0.,24.0,0.,24.0,0.,24.0,0.,24.0
1979-08-02 23:57:18.720 ,3,0,0.,24.0,0.,24.0,0.,24.0,0.,24.0
1979-08-02 23:57:42.720 ,2,1,0.,24.0,0.,24.0,0.,24.0,0.,24.0
1979-08-02 23:58:06.720 ,2,0,0.,24.0,0.,24.0,0.,24.0,0.,24.0
1979-08-02 23:58:30.720 ,1,1,0.,24.0,0.,24.0,0.,24.0,0.,24.0
1979-08-02 23:58:54.720 ,1,0,0.,24.0,0.,24.0,0.,24.0,0.,24.0
1979-08-02 23:59:18.720 ,0,1,0.,24.0,0.,24.0,0.,24.0,0.,24.0
1979-08-02 23:59:42.720 ,0,0,0.,24.0,0.,24.0,0.,24.0,0.,24.0
1979-08-03 00:00:06.720 ,0,1,0.,24.0,0.,24.0,0.,24.0,0.,24.0
